Time,TemperatureF,DewpointF,PressureIn,WindDirection,WindDirectionDegrees,WindSpeedMPH,WindSpeedGustMPH,Humidity,HourlyPrecipIn,Conditions,Clouds,dailyrainin,SoftwareType,DateUTC
2013-02-23 00:00:00,74.2,65.4,29.96,ESE,123,6.0,29.0,74,0.00,,,0.00,Wunderground v.1.15,2013-02-23 05:00:00,
2013-02-23 00:01:00,74.2,65.4,29.96,ESE,123,7.0,29.0,74,0.00,,,0.00,Wunderground v.1.15,2013-02-23 05:01:00,
2013-02-23 00:02:00,74.2,65.4,29.96,SE,133,7.0,29.0,74,0.00,,,0.00,Wunderground v.1.15,2013-02-23 05:02:00,
2013-02-23 00:04:00,74.2,65.4,29.96,SE,133,6.0,29.0,74,0.00,,,0.00,Wunderground v.1.15,2013-02-23 05:04:00,
2013-02-23 00:07:00,74.2,65.4,29.96,SSE,167,6.0,29.0,74,0.00,,,0.00,Wunderground v.1.15,2013-02-23 05:07:00,
2013-02-23 00:08:00,74.2,65.4,29.96,SSE,167,6.0,29.0,74,0.00,,,0.00,Wunderground v.1.15,2013-02-23 05:08:00,
2013-02-23 00:09:00,74.2,65.4,29.96,SSE,167,6.0,29.0,74,0.00,,,0.00,Wunderground v.1.15,2013-02-23 05:09:00,
2013-02-23 00:11:00,74.2,65.4,29.96,SE,138,3.0,29.0,74,0.00,,,0.00,Wunderground v.1.15,2013-02-23 05:11:00,
2013-02-23 00:14:00,74.0,65.2,29.96,SSE,168,6.0,29.0,74,0.00,,,0.00,Wunderground v.1.15,2013-02-23 05:14:00,
2013-02-23 00:16:00,74.0,65.2,29.96,South,171,5.0,29.0,74,0.00,,,0.00,Wunderground v.1.15,2013-02-23 05:16:00,
2013-02-23 00:17:00,74.0,65.2,29.96,SSE,157,1.0,29.0,74,0.00,,,0.00,Wunderground v.1.15,2013-02-23 05:17:00,
2013-02-23 00:21:00,74.0,65.2,29.96,SE,130,4.0,29.0,74,0.00,,,0.00,Wunderground v.1.15,2013-02-23 05:21:00,
2013-02-23 00:22:00,74.0,65.2,29.96,SE,130,4.0,29.0,74,0.00,,,0.00,Wunderground v.1.15,2013-02-23 05:22:00,
2013-02-23 00:23:00,74.0,65.2,29.96,SE,130,3.0,29.0,74,0.00,,,0.00,Wunderground v.1.15,2013-02-23 05:23:00,
2013-02-23 00:28:00,74.0,65.2,29.96,South,174,6.0,29.0,74,0.00,,,0.00,Wunderground v.1.15,2013-02-23 05:28:00,
2013-02-23 00:30:00,74.0,65.2,29.95,South,174,6.0,29.0,74,0.00,,,0.00,Wunderground v.1.15,2013-02-23 05:30:00,
2013-02-23 00:31:00,74.0,65.2,29.95,SSE,155,1.0,29.0,74,0.00,,,0.00,Wunderground v.1.15,2013-02-23 05:31:00,
2013-02-23 00:33:00,74.0,65.2,29.95,SSE,155,1.0,29.0,74,0.00,,,0.00,Wunderground v.1.15,2013-02-23 05:33:00,
2013-02-23 00:37:00,74.0,65.2,29.95,South,174,5.0,29.0,74,0.00,,,0.00,Wunderground v.1.15,2013-02-23 05:37:00,
2013-02-23 00:39:00,74.0,65.2,29.95,SE,144,6.0,29.0,74,0.00,,,0.00,Wunderground v.1.15,2013-02-23 05:39:00,
2013-02-23 00:40:00,74.0,65.2,29.95,SE,144,6.0,29.0,74,0.00,,,0.00,Wunderground v.1.15,2013-02-23 05:40:00,
2013-02-23 00:43:00,74.0,65.2,29.95,SE,138,1.0,29.0,74,0.00,,,0.00,Wunderground v.1.15,2013-02-23 05:43:00,
2013-02-23 00:45:00,74.0,65.2,29.94,SE,137,7.0,29.0,74,0.00,,,0.00,Wunderground v.1.15,2013-02-23 05:45:00,
2013-02-23 00:49:00,73.9,65.1,29.94,SE,126,5.0,29.0,74,0.00,,,0.00,Wunderground v.1.15,2013-02-23 05:49:00,
2013-02-23 00:50:00,73.9,65.1,29.94,SE,126,5.0,29.0,74,0.00,,,0.00,Wunderground v.1.15,2013-02-23 05:50:00,
2013-02-23 00:52:00,73.9,65.1,29.94,SE,127,5.0,29.0,74,0.00,,,0.00,Wunderground v.1.15,2013-02-23 05:52:00,
2013-02-23 00:54:00,73.9,65.1,29.94,SSE,167,5.0,29.0,74,0.00,,,0.00,Wunderground v.1.15,2013-02-23 05:54:00,
2013-02-23 00:56:00,73.9,65.1,29.94,SSE,152,5.0,29.0,74,0.00,,,0.00,Wunderground v.1.15,2013-02-23 05:56:00,
2013-02-23 00:58:00,73.9,65.1,29.94,SSE,152,5.0,29.0,74,0.00,,,0.00,Wunderground v.1.15,2013-02-23 05:58:00,
2013-02-23 01:00:00,73.9,65.1,29.94,SSE,152,5.0,5.0,74,0.00,,,0.00,Wunderground v.1.15,2013-02-23 06:00:00,
2013-02-23 01:03:00,73.9,65.1,29.94,SSE,162,5.0,29.0,74,0.00,,,0.00,Wunderground v.1.15,2013-02-23 06:03:00,
2013-02-23 01:04:00,73.9,65.1,29.94,SSE,152,4.0,29.0,74,0.00,,,0.00,Wunderground v.1.15,2013-02-23 06:04:00,
2013-02-23 01:06:00,73.9,65.1,29.94,SSE,162,4.0,29.0,74,0.00,,,0.00,Wunderground v.1.15,2013-02-23 06:06:00,
2013-02-23 01:10:00,73.9,65.1,29.94,SSE,152,4.0,29.0,74,0.00,,,0.00,Wunderground v.1.15,2013-02-23 06:10:00,
2013-02-23 01:11:00,73.9,65.1,29.94,SSE,162,4.0,29.0,74,0.00,,,0.00,Wunderground v.1.15,2013-02-23 06:11:00,
2013-02-23 01:15:00,73.9,65.1,29.94,SSE,162,2.0,29.0,74,0.00,,,0.00,Wunderground v.1.15,2013-02-23 06:15:00,
2013-02-23 01:16:00,73.9,65.1,29.94,SSE,162,2.0,29.0,74,0.00,,,0.00,Wunderground v.1.15,2013-02-23 06:16:00,
2013-02-23 01:18:00,73.9,65.1,29.94,SSE,164,5.0,29.0,74,0.00,,,0.00,Wunderground v.1.15,2013-02-23 06:18:00,
2013-02-23 01:20:00,73.9,65.1,29.94,SSE,157,2.0,29.0,74,0.00,,,0.00,Wunderground v.1.15,2013-02-23 06:20:00,
2013-02-23 01:21:00,73.9,65.1,29.94,South,171,3.0,29.0,74,0.00,,,0.00,Wunderground v.1.15,2013-02-23 06:21:00,
2013-02-23 01:23:00,73.9,65.1,29.94,South,179,8.0,29.0,74,0.00,,,0.00,Wunderground v.1.15,2013-02-23 06:23:00,
2013-02-23 01:26:00,73.9,65.1,29.94,South,179,8.0,29.0,74,0.00,,,0.00,Wunderground v.1.15,2013-02-23 06:26:00,
2013-02-23 01:28:00,73.9,65.1,29.94,South,179,8.0,29.0,74,0.00,,,0.00,Wunderground v.1.15,2013-02-23 06:28:00,
2013-02-23 01:30:00,73.9,65.1,29.93,ESE,103,1.0,29.0,74,0.00,,,0.00,Wunderground v.1.15,2013-02-23 06:30:00,
2013-02-23 01:31:00,73.9,65.1,29.93,ESE,103,1.0,29.0,74,0.00,,,0.00,Wunderground v.1.15,2013-02-23 06:31:00,
2013-02-23 01:32:00,73.9,65.1,29.93,ESE,103,1.0,29.0,74,0.00,,,0.00,Wunderground v.1.15,2013-02-23 06:32:00,
2013-02-23 01:37:00,74.2,65.4,29.93,South,179,4.0,29.0,74,0.00,,,0.00,Wunderground v.1.15,2013-02-23 06:37:00,
2013-02-23 01:38:00,74.4,65.6,29.93,ESE,121,4.0,29.0,74,0.00,,,0.00,Wunderground v.1.15,2013-02-23 06:38:00,
2013-02-23 01:40:00,74.4,65.6,29.93,SSE,157,4.0,4.0,74,0.00,,,0.00,Wunderground v.1.15,2013-02-23 06:40:00,
2013-02-23 01:41:00,74.4,65.6,29.93,SSE,168,5.0,8.0,74,0.00,,,0.00,Wunderground v.1.15,2013-02-23 06:41:00,
2013-02-23 01:45:00,74.4,65.6,29.93,SSE,162,4.0,29.0,74,0.00,,,0.00,Wunderground v.1.15,2013-02-23 06:45:00,
2013-02-23 01:47:00,74.4,65.6,29.93,South,172,4.0,29.0,74,0.00,,,0.00,Wunderground v.1.15,2013-02-23 06:47:00,
2013-02-23 01:48:00,74.6,65.8,29.93,South,171,5.0,29.0,74,0.00,,,0.00,Wunderground v.1.15,2013-02-23 06:48:00,
2013-02-23 01:54:00,74.6,65.8,29.93,South,171,4.0,29.0,74,0.00,,,0.00,Wunderground v.1.15,2013-02-23 06:54:00,
2013-02-23 01:55:00,74.6,65.8,29.93,SSE,158,6.0,29.0,74,0.00,,,0.00,Wunderground v.1.15,2013-02-23 06:55:00,
2013-02-23 01:57:00,74.6,65.8,29.93,South,185,6.0,29.0,74,0.00,,,0.00,Wunderground v.1.15,2013-02-23 06:57:00,
2013-02-23 02:00:00,74.6,65.8,29.92,SE,144,7.0,29.0,74,0.00,,,0.00,Wunderground v.1.15,2013-02-23 07:00:00,
2013-02-23 02:01:00,74.6,65.8,29.92,SSE,168,6.0,29.0,74,0.00,,,0.00,Wunderground v.1.15,2013-02-23 07:01:00,
2013-02-23 02:03:00,74.6,65.8,29.92,South,172,6.0,29.0,74,0.00,,,0.00,Wunderground v.1.15,2013-02-23 07:03:00,
2013-02-23 02:04:00,74.6,65.8,29.92,South,172,6.0,29.0,74,0.00,,,0.00,Wunderground v.1.15,2013-02-23 07:04:00,
2013-02-23 02:09:00,74.6,65.8,29.92,South,179,0.0,29.0,74,0.00,,,0.00,Wunderground v.1.15,2013-02-23 07:09:00,
2013-02-23 02:10:00,74.6,65.8,29.92,South,179,0.0,29.0,74,0.00,,,0.00,Wunderground v.1.15,2013-02-23 07:10:00,
2013-02-23 02:11:00,74.6,65.8,29.92,South,179,0.0,29.0,74,0.00,,,0.00,Wunderground v.1.15,2013-02-23 07:11:00,
2013-02-23 02:16:00,74.7,65.9,29.92,South,174,5.0,29.0,74,0.00,,,0.00,Wunderground v.1.15,2013-02-23 07:16:00,
2013-02-23 02:17:00,74.7,65.9,29.92,SSE,152,5.0,29.0,74,0.00,,,0.00,Wunderground v.1.15,2013-02-23 07:17:00,
2013-02-23 02:19:00,74.7,65.9,29.92,SSE,168,6.0,29.0,74,0.00,,,0.00,Wunderground v.1.15,2013-02-23 07:19:00,
2013-02-23 02:20:00,74.7,65.9,29.92,SSE,161,6.0,29.0,74,0.00,,,0.00,Wunderground v.1.15,2013-02-23 07:20:00,
2013-02-23 02:21:00,74.7,65.9,29.92,SSE,161,6.0,29.0,74,0.00,,,0.00,Wunderground v.1.15,2013-02-23 07:21:00,
2013-02-23 02:23:00,74.7,65.9,29.92,SSE,148,6.0,29.0,74,0.00,,,0.00,Wunderground v.1.15,2013-02-23 07:23:00,
2013-02-23 02:25:00,74.7,65.9,29.92,SSE,148,7.0,29.0,74,0.00,,,0.00,Wunderground v.1.15,2013-02-23 07:25:00,
2013-02-23 02:26:00,74.7,65.9,29.92,SE,137,6.0,29.0,74,0.00,,,0.00,Wunderground v.1.15,2013-02-23 07:26:00,
2013-02-23 02:29:00,74.7,65.9,29.92,SSE,160,5.0,29.0,74,0.00,,,0.00,Wunderground v.1.15,2013-02-23 07:29:00,
2013-02-23 02:30:00,74.7,65.9,29.91,South,169,5.0,29.0,74,0.00,,,0.00,Wunderground v.1.15,2013-02-23 07:30:00,
2013-02-23 02:33:00,74.7,65.9,29.91,SE,134,5.0,29.0,74,0.00,,,0.00,Wunderground v.1.15,2013-02-23 07:33:00,
2013-02-23 02:34:00,74.7,65.9,29.91,South,179,5.0,29.0,74,0.00,,,0.00,Wunderground v.1.15,2013-02-23 07:34:00,
2013-02-23 02:36:00,74.9,66.1,29.91,South,171,5.0,29.0,74,0.00,,,0.00,Wunderground v.1.15,2013-02-23 07:36:00,
2013-02-23 02:39:00,74.9,66.1,29.91,SSE,161,5.0,29.0,74,0.00,,,0.00,Wunderground v.1.15,2013-02-23 07:39:00,
2013-02-23 02:42:00,74.9,66.1,29.91,SSE,168,4.0,29.0,74,0.00,,,0.00,Wunderground v.1.15,2013-02-23 07:42:00,
2013-02-23 02:43:00,74.9,66.1,29.91,SSE,168,4.0,29.0,74,0.00,,,0.00,Wunderground v.1.15,2013-02-23 07:43:00,
2013-02-23 02:44:00,74.9,66.1,29.91,SSE,151,4.0,29.0,74,0.00,,,0.00,Wunderground v.1.15,2013-02-23 07:44:00,
2013-02-23 02:47:00,74.9,66.1,29.91,SE,145,3.0,29.0,74,0.00,,,0.00,Wunderground v.1.15,2013-02-23 07:47:00,
2013-02-23 02:49:00,74.9,69.7,29.91,South,171,3.0,29.0,84,0.00,,,0.00,Wunderground v.1.15,2013-02-23 07:49:00,
2013-02-23 02:54:00,74.9,69.7,29.91,SSW,200,6.0,29.0,84,0.00,,,0.00,Wunderground v.1.15,2013-02-23 07:54:00,
2013-02-23 02:56:00,74.9,69.7,29.91,SE,130,5.0,29.0,84,0.00,,,0.00,Wunderground v.1.15,2013-02-23 07:56:00,
2013-02-23 02:58:00,74.9,69.7,29.91,South,169,5.0,29.0,84,0.00,,,0.00,Wunderground v.1.15,2013-02-23 07:58:00,
2013-02-23 03:01:00,74.9,69.7,29.91,SSE,154,5.0,29.0,84,0.00,,,0.00,Wunderground v.1.15,2013-02-23 08:01:00,
2013-02-23 03:04:00,74.9,69.7,29.91,SSW,210,3.0,29.0,84,0.00,,,0.00,Wunderground v.1.15,2013-02-23 08:04:00,
2013-02-23 03:05:00,74.9,69.7,29.91,SSW,210,4.0,29.0,84,0.00,,,0.00,Wunderground v.1.15,2013-02-23 08:05:00,
2013-02-23 03:06:00,74.9,69.7,29.91,SSW,210,4.0,29.0,84,0.00,,,0.00,Wunderground v.1.15,2013-02-23 08:06:00,
2013-02-23 03:07:00,74.9,69.7,29.91,SSW,210,7.0,29.0,84,0.00,,,0.00,Wunderground v.1.15,2013-02-23 08:07:00,
2013-02-23 03:09:00,74.9,69.7,29.91,South,171,3.0,29.0,84,0.00,,,0.00,Wunderground v.1.15,2013-02-23 08:09:00,
2013-02-23 03:10:00,74.9,69.7,29.91,South,171,3.0,3.0,84,0.00,,,0.00,Wunderground v.1.15,2013-02-23 08:10:00,
2013-02-23 03:14:00,74.9,69.7,29.91,South,185,6.0,29.0,84,0.00,,,0.00,Wunderground v.1.15,2013-02-23 08:14:00,
2013-02-23 03:17:00,74.9,69.7,29.91,South,178,3.0,29.0,84,0.00,,,0.00,Wunderground v.1.15,2013-02-23 08:17:00,
2013-02-23 03:18:00,74.9,69.7,29.91,SSE,161,3.0,29.0,84,0.00,,,0.00,Wunderground v.1.15,2013-02-23 08:18:00,
2013-02-23 03:19:00,74.9,69.7,29.91,SSE,161,3.0,29.0,84,0.00,,,0.00,Wunderground v.1.15,2013-02-23 08:19:00,
2013-02-23 03:20:00,74.6,69.4,29.91,SSW,200,7.0,29.0,84,0.00,,,0.00,Wunderground v.1.15,2013-02-23 08:20:00,
2013-02-23 03:23:00,74.6,69.4,29.91,SSE,150,1.0,29.0,84,0.00,,,0.00,Wunderground v.1.15,2013-02-23 08:23:00,
2013-02-23 03:24:00,74.6,69.4,29.91,SE,144,3.0,29.0,84,0.00,,,0.00,Wunderground v.1.15,2013-02-23 08:24:00,
2013-02-23 03:27:00,74.6,69.4,29.91,SSE,147,5.0,29.0,84,0.00,,,0.00,Wunderground v.1.15,2013-02-23 08:27:00,
2013-02-23 03:28:00,74.4,69.2,29.91,South,176,4.0,29.0,84,0.00,,,0.00,Wunderground v.1.15,2013-02-23 08:28:00,
2013-02-23 03:33:00,74.4,69.2,29.90,SW,217,5.0,29.0,84,0.00,,,0.00,Wunderground v.1.15,2013-02-23 08:33:00,
2013-02-23 03:34:00,74.4,69.2,29.90,SSE,154,5.0,29.0,84,0.00,,,0.00,Wunderground v.1.15,2013-02-23 08:34:00,
2013-02-23 03:36:00,74.4,69.2,29.90,SSE,162,4.0,29.0,84,0.00,,,0.00,Wunderground v.1.15,2013-02-23 08:36:00,
2013-02-23 03:39:00,74.4,69.2,29.90,SSE,162,4.0,29.0,84,0.00,,,0.00,Wunderground v.1.15,2013-02-23 08:39:00,
2013-02-23 03:40:00,74.4,69.2,29.90,SSE,162,4.0,29.0,84,0.00,,,0.00,Wunderground v.1.15,2013-02-23 08:40:00,
2013-02-23 03:41:00,74.4,69.2,29.90,SSE,150,4.0,29.0,84,0.00,,,0.00,Wunderground v.1.15,2013-02-23 08:41:00,
2013-02-23 03:46:00,74.4,67.5,29.90,SSW,213,4.0,29.0,79,0.00,,,0.00,Wunderground v.1.15,2013-02-23 08:46:00,
2013-02-23 03:47:00,74.4,67.5,29.90,SE,131,4.0,29.0,79,0.00,,,0.00,Wunderground v.1.15,2013-02-23 08:47:00,
2013-02-23 03:49:00,74.4,67.5,29.90,SE,131,5.0,29.0,79,0.00,,,0.00,Wunderground v.1.15,2013-02-23 08:49:00,
2013-02-23 03:51:00,74.4,67.5,29.90,South,179,2.0,5.0,79,0.00,,,0.00,Wunderground v.1.15,2013-02-23 08:51:00,
2013-02-23 03:54:00,74.4,67.5,29.90,SSE,162,3.0,29.0,79,0.00,,,0.00,Wunderground v.1.15,2013-02-23 08:54:00,
2013-02-23 03:55:00,74.4,67.5,29.90,SSE,162,4.0,29.0,79,0.00,,,0.00,Wunderground v.1.15,2013-02-23 08:55:00,
2013-02-23 03:59:00,74.4,67.5,29.90,SSE,152,3.0,29.0,79,0.00,,,0.00,Wunderground v.1.15,2013-02-23 08:59:00,
2013-02-23 04:00:00,74.4,67.5,29.90,SSE,152,3.0,29.0,79,0.00,,,0.00,Wunderground v.1.15,2013-02-23 09:00:00,
2013-02-23 04:02:00,74.4,67.5,29.90,South,176,3.0,29.0,79,0.00,,,0.00,Wunderground v.1.15,2013-02-23 09:02:00,
2013-02-23 04:06:00,74.4,67.5,29.90,SSE,165,3.0,29.0,79,0.00,,,0.00,Wunderground v.1.15,2013-02-23 09:06:00,
2013-02-23 04:07:00,74.4,67.5,29.90,SSE,165,6.0,29.0,79,0.00,,,0.00,Wunderground v.1.15,2013-02-23 09:07:00,
2013-02-23 04:11:00,74.4,67.5,29.90,SSE,168,7.0,29.0,79,0.00,,,0.00,Wunderground v.1.15,2013-02-23 09:11:00,
2013-02-23 04:13:00,74.4,67.5,29.90,SSE,168,7.0,29.0,79,0.00,,,0.00,Wunderground v.1.15,2013-02-23 09:13:00,
2013-02-23 04:14:00,74.4,67.5,29.90,SE,141,6.0,29.0,79,0.00,,,0.00,Wunderground v.1.15,2013-02-23 09:14:00,
2013-02-23 04:16:00,74.4,67.5,29.90,South,174,6.0,29.0,79,0.00,,,0.00,Wunderground v.1.15,2013-02-23 09:16:00,
2013-02-23 04:19:00,74.4,67.5,29.90,SE,127,7.0,29.0,79,0.00,,,0.00,Wunderground v.1.15,2013-02-23 09:19:00,
2013-02-23 04:20:00,74.4,67.5,29.90,South,174,5.0,5.0,79,0.00,,,0.00,Wunderground v.1.15,2013-02-23 09:20:00,
2013-02-23 04:21:00,74.4,67.5,29.90,SW,219,5.0,7.0,79,0.00,,,0.00,Wunderground v.1.15,2013-02-23 09:21:00,
2013-02-23 04:25:00,74.4,67.5,29.90,South,175,5.0,29.0,79,0.00,,,0.00,Wunderground v.1.15,2013-02-23 09:25:00,
2013-02-23 04:26:00,74.4,67.5,29.90,South,175,4.0,29.0,79,0.00,,,0.00,Wunderground v.1.15,2013-02-23 09:26:00,
2013-02-23 04:30:00,74.2,67.3,29.90,SSE,167,2.0,29.0,79,0.00,,,0.00,Wunderground v.1.15,2013-02-23 09:30:00,
2013-02-23 04:31:00,74.2,67.3,29.90,SSW,192,4.0,29.0,79,0.00,,,0.00,Wunderground v.1.15,2013-02-23 09:31:00,
2013-02-23 04:32:00,74.2,67.3,29.90,SSW,192,5.0,29.0,79,0.00,,,0.00,Wunderground v.1.15,2013-02-23 09:32:00,
2013-02-23 04:34:00,74.2,67.3,29.90,South,178,4.0,29.0,79,0.00,,,0.00,Wunderground v.1.15,2013-02-23 09:34:00,
2013-02-23 04:36:00,74.2,67.3,29.90,South,176,5.0,29.0,79,0.00,,,0.00,Wunderground v.1.15,2013-02-23 09:36:00,
2013-02-23 04:37:00,74.2,67.3,29.90,South,176,5.0,29.0,79,0.00,,,0.00,Wunderground v.1.15,2013-02-23 09:37:00,
2013-02-23 04:40:00,74.2,67.3,29.90,SSW,198,5.0,29.0,79,0.00,,,0.00,Wunderground v.1.15,2013-02-23 09:40:00,
2013-02-23 04:41:00,74.2,67.3,29.90,SSE,157,5.0,29.0,79,0.00,,,0.00,Wunderground v.1.15,2013-02-23 09:41:00,
2013-02-23 04:44:00,74.2,67.3,29.90,SSW,206,5.0,29.0,79,0.00,,,0.00,Wunderground v.1.15,2013-02-23 09:44:00,
2013-02-23 04:45:00,74.2,67.3,29.90,SSW,206,5.0,29.0,79,0.00,,,0.00,Wunderground v.1.15,2013-02-23 09:45:00,
2013-02-23 04:46:00,74.2,67.3,29.90,SSW,205,0.0,29.0,79,0.00,,,0.00,Wunderground v.1.15,2013-02-23 09:46:00,
2013-02-23 04:48:00,74.2,67.3,29.90,South,188,3.0,29.0,79,0.00,,,0.00,Wunderground v.1.15,2013-02-23 09:48:00,
2013-02-23 04:51:00,74.2,67.3,29.90,South,188,2.0,29.0,79,0.00,,,0.00,Wunderground v.1.15,2013-02-23 09:51:00,
2013-02-23 04:53:00,74.2,67.3,29.90,SSW,196,2.0,29.0,79,0.00,,,0.00,Wunderground v.1.15,2013-02-23 09:53:00,
2013-02-23 04:54:00,74.2,67.3,29.90,SSW,196,1.0,29.0,79,0.00,,,0.00,Wunderground v.1.15,2013-02-23 09:54:00,
2013-02-23 04:56:00,74.2,67.3,29.90,South,184,1.0,29.0,79,0.00,,,0.00,Wunderground v.1.15,2013-02-23 09:56:00,
2013-02-23 04:59:00,74.2,67.3,29.90,SSE,157,1.0,29.0,79,0.00,,,0.00,Wunderground v.1.15,2013-02-23 09:59:00,
2013-02-23 05:01:00,74.2,67.3,29.90,SSE,162,2.0,29.0,79,0.00,,,0.00,Wunderground v.1.15,2013-02-23 10:01:00,
2013-02-23 05:04:00,74.2,67.3,29.90,South,186,2.0,29.0,79,0.00,,,0.00,Wunderground v.1.15,2013-02-23 10:04:00,
2013-02-23 05:06:00,74.0,68.5,29.90,SE,143,2.0,29.0,83,0.00,,,0.00,Wunderground v.1.15,2013-02-23 10:06:00,
2013-02-23 05:07:00,74.0,68.5,29.90,SSW,198,2.0,29.0,83,0.00,,,0.00,Wunderground v.1.15,2013-02-23 10:07:00,
2013-02-23 05:09:00,74.0,68.5,29.90,SSW,203,2.0,29.0,83,0.00,,,0.00,Wunderground v.1.15,2013-02-23 10:09:00,
2013-02-23 05:11:00,74.0,68.5,29.90,SSW,208,2.0,6.0,83,0.00,,,0.00,Wunderground v.1.15,2013-02-23 10:11:00,
2013-02-23 05:14:00,74.0,68.5,29.90,SSE,162,3.0,29.0,83,0.00,,,0.00,Wunderground v.1.15,2013-02-23 10:14:00,
2013-02-23 05:16:00,74.0,68.5,29.90,SSE,148,3.0,29.0,83,0.00,,,0.00,Wunderground v.1.15,2013-02-23 10:16:00,
2013-02-23 05:19:00,74.0,68.5,29.90,SSE,150,3.0,29.0,83,0.00,,,0.00,Wunderground v.1.15,2013-02-23 10:19:00,
2013-02-23 05:20:00,74.0,68.5,29.90,SSW,209,3.0,29.0,83,0.00,,,0.00,Wunderground v.1.15,2013-02-23 10:20:00,
2013-02-23 05:22:00,74.0,68.5,29.90,South,182,3.0,29.0,83,0.00,,,0.00,Wunderground v.1.15,2013-02-23 10:22:00,
2013-02-23 05:26:00,74.0,68.5,29.90,SE,145,2.0,29.0,83,0.00,,,0.00,Wunderground v.1.15,2013-02-23 10:26:00,
2013-02-23 05:28:00,74.0,68.5,29.90,SE,145,3.0,29.0,83,0.00,,,0.00,Wunderground v.1.15,2013-02-23 10:28:00,
2013-02-23 05:29:00,74.0,68.5,29.90,SE,145,3.0,29.0,83,0.00,,,0.00,Wunderground v.1.15,2013-02-23 10:29:00,
2013-02-23 05:31:00,74.0,68.5,29.91,SSE,154,3.0,29.0,83,0.00,,,0.00,Wunderground v.1.15,2013-02-23 10:31:00,
2013-02-23 05:34:00,74.0,68.5,29.91,SSE,164,3.0,29.0,83,0.00,,,0.00,Wunderground v.1.15,2013-02-23 10:34:00,
2013-02-23 05:37:00,74.0,68.5,29.91,South,169,3.0,29.0,83,0.00,,,0.00,Wunderground v.1.15,2013-02-23 10:37:00,
2013-02-23 05:38:00,74.0,68.5,29.91,South,185,3.0,29.0,83,0.00,,,0.00,Wunderground v.1.15,2013-02-23 10:38:00,
2013-02-23 05:39:00,73.9,68.4,29.91,South,178,2.0,29.0,83,0.00,,,0.00,Wunderground v.1.15,2013-02-23 10:39:00,
2013-02-23 05:40:00,73.9,68.4,29.91,South,171,2.0,2.0,83,0.00,,,0.00,Wunderground v.1.15,2013-02-23 10:40:00,
2013-02-23 05:44:00,73.9,68.4,29.91,South,169,1.0,29.0,83,0.00,,,0.00,Wunderground v.1.15,2013-02-23 10:44:00,
2013-02-23 05:45:00,73.9,68.4,29.91,South,178,1.0,29.0,83,0.00,,,0.00,Wunderground v.1.15,2013-02-23 10:45:00,
2013-02-23 05:46:00,73.9,68.4,29.91,South,178,1.0,29.0,83,0.00,,,0.00,Wunderground v.1.15,2013-02-23 10:46:00,
2013-02-23 05:50:00,73.9,68.4,29.91,South,174,1.0,29.0,83,0.00,,,0.00,Wunderground v.1.15,2013-02-23 10:50:00,
2013-02-23 05:51:00,73.9,68.4,29.91,South,172,1.0,29.0,83,0.00,,,0.00,Wunderground v.1.15,2013-02-23 10:51:00,
2013-02-23 05:52:00,73.9,68.4,29.91,South,172,1.0,29.0,83,0.00,,,0.00,Wunderground v.1.15,2013-02-23 10:52:00,
2013-02-23 05:55:00,73.9,68.4,29.91,South,172,1.0,29.0,83,0.00,,,0.00,Wunderground v.1.15,2013-02-23 10:55:00,
2013-02-23 05:56:00,73.9,68.4,29.91,South,169,1.0,29.0,83,0.00,,,0.00,Wunderground v.1.15,2013-02-23 10:56:00,
2013-02-23 05:59:00,73.9,68.4,29.91,South,175,1.0,29.0,83,0.00,,,0.00,Wunderground v.1.15,2013-02-23 10:59:00,
2013-02-23 06:00:00,73.9,68.4,29.91,SSE,157,1.0,1.0,83,0.00,,,0.00,Wunderground v.1.15,2013-02-23 11:00:00,
2013-02-23 06:02:00,73.9,68.4,29.91,SSE,157,1.0,29.0,83,0.00,,,0.00,Wunderground v.1.15,2013-02-23 11:02:00,
2013-02-23 06:03:00,73.9,68.4,29.91,SSW,199,1.0,29.0,83,0.00,,,0.00,Wunderground v.1.15,2013-02-23 11:03:00,
2013-02-23 06:05:00,73.9,68.8,29.91,SSE,168,1.0,29.0,84,0.00,,,0.00,Wunderground v.1.15,2013-02-23 11:05:00,
2013-02-23 06:06:00,73.7,68.6,29.91,SSE,168,1.0,29.0,84,0.00,,,0.00,Wunderground v.1.15,2013-02-23 11:06:00,
2013-02-23 06:09:00,73.7,68.6,29.91,SSW,206,1.0,29.0,84,0.00,,,0.00,Wunderground v.1.15,2013-02-23 11:09:00,
2013-02-23 06:10:00,73.7,68.6,29.91,South,184,1.0,1.0,84,0.00,,,0.00,Wunderground v.1.15,2013-02-23 11:10:00,
2013-02-23 06:12:00,73.9,68.8,29.91,South,176,1.0,29.0,84,0.00,,,0.00,Wunderground v.1.15,2013-02-23 11:12:00,
2013-02-23 06:13:00,73.9,68.8,29.91,South,176,1.0,29.0,84,0.00,,,0.00,Wunderground v.1.15,2013-02-23 11:13:00,
2013-02-23 06:15:00,73.9,68.8,29.91,SSW,198,2.0,29.0,84,0.00,,,0.00,Wunderground v.1.15,2013-02-23 11:15:00,
2013-02-23 06:16:00,73.9,68.8,29.91,SSW,198,2.0,29.0,84,0.00,,,0.00,Wunderground v.1.15,2013-02-23 11:16:00,
2013-02-23 06:18:00,73.9,68.8,29.91,SSW,210,2.0,29.0,84,0.00,,,0.00,Wunderground v.1.15,2013-02-23 11:18:00,
2013-02-23 06:21:00,73.9,68.8,29.91,SSW,208,2.0,29.0,84,0.00,,,0.00,Wunderground v.1.15,2013-02-23 11:21:00,
2013-02-23 06:23:00,73.9,68.8,29.91,South,188,2.0,29.0,84,0.00,,,0.00,Wunderground v.1.15,2013-02-23 11:23:00,
2013-02-23 06:25:00,73.9,68.8,29.91,SSW,206,3.0,29.0,84,0.00,,,0.00,Wunderground v.1.15,2013-02-23 11:25:00,
2013-02-23 06:27:00,73.9,68.8,29.91,SSW,196,2.0,29.0,84,0.00,,,0.00,Wunderground v.1.15,2013-02-23 11:27:00,
2013-02-23 06:29:00,73.9,68.8,29.91,SSW,195,2.0,29.0,84,0.00,,,0.00,Wunderground v.1.15,2013-02-23 11:29:00,
2013-02-23 06:33:00,73.9,68.1,29.91,South,178,1.0,29.0,82,0.00,,,0.00,Wunderground v.1.15,2013-02-23 11:33:00,
2013-02-23 06:34:00,73.9,68.1,29.91,South,178,1.0,29.0,82,0.00,,,0.00,Wunderground v.1.15,2013-02-23 11:34:00,
2013-02-23 06:35:00,73.9,68.1,29.91,South,179,1.0,29.0,82,0.00,,,0.00,Wunderground v.1.15,2013-02-23 11:35:00,
2013-02-23 06:37:00,73.9,68.1,29.91,South,178,1.0,29.0,82,0.00,,,0.00,Wunderground v.1.15,2013-02-23 11:37:00,
2013-02-23 06:39:00,73.9,68.1,29.91,SSW,210,1.0,29.0,82,0.00,,,0.00,Wunderground v.1.15,2013-02-23 11:39:00,
2013-02-23 06:40:00,73.9,68.1,29.91,SSW,210,1.0,29.0,82,0.00,,,0.00,Wunderground v.1.15,2013-02-23 11:40:00,
2013-02-23 06:41:00,73.9,68.1,29.91,SSW,210,1.0,29.0,82,0.00,,,0.00,Wunderground v.1.15,2013-02-23 11:41:00,
2013-02-23 06:46:00,73.9,68.1,29.91,SSW,208,1.0,29.0,82,0.00,,,0.00,Wunderground v.1.15,2013-02-23 11:46:00,
2013-02-23 06:47:00,73.9,68.1,29.91,SSW,208,1.0,29.0,82,0.00,,,0.00,Wunderground v.1.15,2013-02-23 11:47:00,
2013-02-23 06:48:00,73.9,68.4,29.91,SSW,206,0.0,29.0,83,0.00,,,0.00,Wunderground v.1.15,2013-02-23 11:48:00,
2013-02-23 06:52:00,73.9,68.4,29.91,South,188,2.0,29.0,83,0.00,,,0.00,Wunderground v.1.15,2013-02-23 11:52:00,
2013-02-23 06:54:00,73.9,68.4,29.91,South,188,0.0,29.0,83,0.00,,,0.00,Wunderground v.1.15,2013-02-23 11:54:00,
2013-02-23 06:57:00,73.9,68.4,29.91,South,188,0.0,29.0,83,0.00,,,0.00,Wunderground v.1.15,2013-02-23 11:57:00,
2013-02-23 06:58:00,73.9,68.4,29.91,South,188,0.0,29.0,83,0.00,,,0.00,Wunderground v.1.15,2013-02-23 11:58:00,
2013-02-23 06:59:00,73.9,68.4,29.91,South,188,0.0,29.0,83,0.00,,,0.00,Wunderground v.1.15,2013-02-23 11:59:00,
2013-02-23 07:00:00,73.9,68.4,29.91,South,188,0.0,29.0,83,0.00,,,0.00,Wunderground v.1.15,2013-02-23 12:00:00,
2013-02-23 07:03:00,73.5,68.0,29.91,South,176,0.0,29.0,83,0.00,,,0.00,Wunderground v.1.15,2013-02-23 12:03:00,
2013-02-23 07:04:00,73.5,68.0,29.91,South,176,0.0,29.0,83,0.00,,,0.00,Wunderground v.1.15,2013-02-23 12:04:00,
2013-02-23 07:05:00,73.5,68.0,29.91,South,176,0.0,29.0,83,0.00,,,0.00,Wunderground v.1.15,2013-02-23 12:05:00,
2013-02-23 07:06:00,73.5,68.0,29.91,South,176,0.0,29.0,83,0.00,,,0.00,Wunderground v.1.15,2013-02-23 12:06:00,
2013-02-23 07:09:00,73.5,68.0,29.91,South,178,1.0,29.0,83,0.00,,,0.00,Wunderground v.1.15,2013-02-23 12:09:00,
2013-02-23 07:10:00,73.5,68.0,29.91,South,176,1.0,1.0,83,0.00,,,0.00,Wunderground v.1.15,2013-02-23 12:10:00,
2013-02-23 07:13:00,73.5,68.0,29.91,South,178,0.0,29.0,83,0.00,,,0.00,Wunderground v.1.15,2013-02-23 12:13:00,
2013-02-23 07:14:00,73.5,68.0,29.91,South,178,0.0,29.0,83,0.00,,,0.00,Wunderground v.1.15,2013-02-23 12:14:00,
2013-02-23 07:15:00,73.5,68.0,29.91,South,178,0.0,29.0,83,0.00,,,0.00,Wunderground v.1.15,2013-02-23 12:15:00,
2013-02-23 07:16:00,73.5,68.0,29.91,SSW,192,0.0,29.0,83,0.00,,,0.00,Wunderground v.1.15,2013-02-23 12:16:00,
2013-02-23 07:22:00,73.5,68.0,29.91,South,191,0.0,29.0,83,0.00,,,0.00,Wunderground v.1.15,2013-02-23 12:22:00,
2013-02-23 07:23:00,73.5,68.0,29.91,South,191,0.0,29.0,83,0.00,,,0.00,Wunderground v.1.15,2013-02-23 12:23:00,
2013-02-23 07:24:00,73.5,68.0,29.91,South,191,1.0,29.0,83,0.00,,,0.00,Wunderground v.1.15,2013-02-23 12:24:00,
2013-02-23 07:28:00,73.5,68.0,29.91,South,184,1.0,1.0,83,0.00,,,0.00,Wunderground v.1.15,2013-02-23 12:28:00,
2013-02-23 07:29:00,73.5,68.0,29.91,South,184,1.0,1.0,83,0.00,,,0.00,Wunderground v.1.15,2013-02-23 12:29:00,
2013-02-23 07:30:00,73.5,68.0,29.92,South,181,1.0,1.0,83,0.00,,,0.00,Wunderground v.1.15,2013-02-23 12:30:00,
2013-02-23 07:34:00,74.0,68.5,29.92,South,172,2.0,3.0,83,0.00,,,0.00,Wunderground v.1.15,2013-02-23 12:34:00,
2013-02-23 07:35:00,74.0,68.5,29.92,South,178,1.0,3.0,83,0.00,,,0.00,Wunderground v.1.15,2013-02-23 12:35:00,
2013-02-23 07:37:00,74.0,68.5,29.92,South,174,1.0,1.0,83,0.00,,,0.00,Wunderground v.1.15,2013-02-23 12:37:00,
2013-02-23 07:38:00,74.0,68.5,29.92,South,174,1.0,1.0,83,0.00,,,0.00,Wunderground v.1.15,2013-02-23 12:38:00,
2013-02-23 07:41:00,74.0,68.5,29.92,SSE,161,1.0,1.0,83,0.00,,,0.00,Wunderground v.1.15,2013-02-23 12:41:00,
2013-02-23 07:42:00,74.2,68.7,29.92,SSW,200,1.0,3.0,83,0.00,,,0.00,Wunderground v.1.15,2013-02-23 12:42:00,
2013-02-23 07:43:00,74.2,68.7,29.92,SSW,200,1.0,3.0,83,0.00,,,0.00,Wunderground v.1.15,2013-02-23 12:43:00,
2013-02-23 07:44:00,74.2,68.7,29.92,SSW,192,1.0,3.0,83,0.00,,,0.00,Wunderground v.1.15,2013-02-23 12:44:00,
2013-02-23 07:47:00,74.2,68.7,29.92,SSW,199,1.0,1.0,83,0.00,,,0.00,Wunderground v.1.15,2013-02-23 12:47:00,
2013-02-23 07:50:00,74.2,68.7,29.92,South,181,2.0,5.0,83,0.00,,,0.00,Wunderground v.1.15,2013-02-23 12:50:00,
2013-02-23 07:51:00,74.9,69.4,29.92,South,171,3.0,5.0,83,0.00,,,0.00,Wunderground v.1.15,2013-02-23 12:51:00,
2013-02-23 07:52:00,74.9,69.4,29.92,South,171,3.0,5.0,83,0.00,,,0.00,Wunderground v.1.15,2013-02-23 12:52:00,
2013-02-23 07:55:00,75.3,69.8,29.92,South,178,2.0,5.0,83,0.00,,,0.00,Wunderground v.1.15,2013-02-23 12:55:00,
2013-02-23 07:59:00,75.3,69.8,29.92,SSW,208,1.0,3.0,83,0.00,,,0.00,Wunderground v.1.15,2013-02-23 12:59:00,
2013-02-23 08:00:00,75.3,69.8,29.93,SSW,206,1.0,1.0,83,0.00,,,0.00,Wunderground v.1.15,2013-02-23 13:00:00,
2013-02-23 08:03:00,75.3,69.8,29.93,South,189,1.0,3.0,83,0.00,,,0.00,Wunderground v.1.15,2013-02-23 13:03:00,
2013-02-23 08:05:00,75.8,70.3,29.93,South,179,2.0,4.0,83,0.00,,,0.00,Wunderground v.1.15,2013-02-23 13:05:00,
2013-02-23 08:06:00,75.8,70.3,29.93,South,178,2.0,4.0,83,0.00,,,0.00,Wunderground v.1.15,2013-02-23 13:06:00,
2013-02-23 08:08:00,76.0,70.5,29.93,SSE,165,3.0,6.0,83,0.00,,,0.00,Wunderground v.1.15,2013-02-23 13:08:00,
2013-02-23 08:13:00,76.1,70.6,29.93,SE,131,3.0,5.0,83,0.00,,,0.00,Wunderground v.1.15,2013-02-23 13:13:00,
2013-02-23 08:14:00,76.3,70.8,29.93,South,179,3.0,5.0,83,0.00,,,0.00,Wunderground v.1.15,2013-02-23 13:14:00,
2013-02-23 08:16:00,76.3,70.8,29.93,SSW,200,3.0,8.0,83,0.00,,,0.00,Wunderground v.1.15,2013-02-23 13:16:00,
2013-02-23 08:18:00,76.3,70.8,29.93,ESE,112,2.0,8.0,83,0.00,,,0.00,Wunderground v.1.15,2013-02-23 13:18:00,
2013-02-23 08:21:00,76.5,70.9,29.93,SSE,168,4.0,11.0,83,0.00,,,0.00,Wunderground v.1.15,2013-02-23 13:21:00,
2013-02-23 08:22:00,76.5,70.9,29.93,SSE,168,4.0,11.0,83,0.00,,,0.00,Wunderground v.1.15,2013-02-23 13:22:00,
2013-02-23 08:23:00,76.7,71.1,29.93,South,178,4.0,11.0,83,0.00,,,0.00,Wunderground v.1.15,2013-02-23 13:23:00,
2013-02-23 08:24:00,76.7,71.1,29.93,South,178,4.0,11.0,83,0.00,,,0.00,Wunderground v.1.15,2013-02-23 13:24:00,
2013-02-23 08:29:00,76.7,71.1,29.93,South,185,3.0,11.0,83,0.00,,,0.00,Wunderground v.1.15,2013-02-23 13:29:00,
2013-02-23 08:31:00,76.7,71.1,29.93,SSW,205,4.0,4.0,83,0.00,,,0.00,Wunderground v.1.15,2013-02-23 13:31:00,
2013-02-23 08:33:00,76.7,71.1,29.93,SSW,193,4.0,6.0,83,0.00,,,0.00,Wunderground v.1.15,2013-02-23 13:33:00,
2013-02-23 08:34:00,76.7,71.1,29.93,SSW,193,5.0,6.0,83,0.00,,,0.00,Wunderground v.1.15,2013-02-23 13:34:00,